Weather in Mezha

Belarus     55°40′52″N   30°25′22″E
temp.,
°C
wind,
m/s
gust,
m/s
humid.,
%
clouds,
%
prec.,
mm/h
press.,
hPa
HPBL,
m
12 april, mon
mon1200:00+8sse298358 0.0 1028170
03:00+6sse288513 0.0 1029156
06:00+5se39875 0.0 1029159
09:00+9sse49685 0.0 1028351
12:00+14se58460 0.0 10271150
15:00+16se573994 0.0 10251539
18:00+13se4845100 0.0 1023717
21:00+8se4980100 0.1 1024485
13 april, tue
tue1300:00+8sse31194100 1.4 1023618
03:00+8sse279693 1.7 1022320
06:00+6s2298100 0.0 102224
09:00+10sse2386100 0.0 1022298
12:00+14sse3470100 0.0 1021737
15:00+12sse1383100 0.0 1021178
18:00+10ese1196100 0.8 102014
21:00+10ne2298100 1.9 102057
14 april, wed
wed1400:00+10ene269998 1.5 1018208
03:00+9ese129897 2.1 101740
06:00+9sse269890 0.8 1016210
09:00+10sse2796100 1.1 1017443
12:00+13ssw4675100 0.2 10171043
15:00+14ssw257198 0.5 1017869
18:00+12n237999 0.2 1017232
21:00+7n3894100 0.3 1018281
15 april, thu
thu1500:00+6nne499498 0.1 1018291
03:00+5nne4895100 0.6 1018289
06:00+5n3795100 0.4 1018299
09:00+5n3895100 0.7 1019294
12:00+5n4793100 0.2 1019354
15:00+5n4893100 0.2 1019403
18:00+5n4994100 0.0 1019416
21:00+5nne41095100 0.1 1019430
16 april, fri
fri1600:00+5nne41095100 0.3 1019444
03:00+5nne51294100 0.4 1019530
06:00+5nne51294100 0.4 1019612
09:00+5nne51193100 0.7 1020680
12:00+6ne51290100 0.1 1022660
15:00+6ne51387100 0.1 1023743
18:00+7ne41281100 0.0 10241001
21:00+7ne41272100 0.0 1025853